Hourly Data

Hourly Data Report for March 02, 2012

All times are specified in Local Standard Time (LST). Add 1 hour to adjust for Daylight Saving Time where and when it is observed.

Metadata including Station Name, Province, Latitude, Longitude, Elevation, Climate ID, WMO ID, TC ID
CHARLOTTETOWN A
PRINCE EDWARD ISLAND
Latitude: 46°17'19.020" N Longitude: 63°07'43.070" W Elevation: 48.80 m
Climate ID: 8300300 WMO ID: 71706 TC ID: YYG
Hourly Data Report for March 2, 2012
Temp Definition
°C

Dew Point Temp Definition
°C

Rel Hum Definition
%

Wind Dir Definition
10's deg
Wind Spd Definition
km/h

Visibility Definition
km

Stn Press Definition
kPa

Hmdx Definition

Wind Chill Definition

Weather Definition

TIME
00:00 -10.1 -14.6 70 6 15 24.1 101.61 -17 Cloudy
01:00 -10.3 -15.0 68 6 15 24.1 101.59 -17 Cloudy
02:00 -9.9 -14.8 67 7 15 24.1 101.60 -17 Snow
03:00 -9.7 -14.5 68 6 11 24.1 101.60 -15 Snow
04:00 -9.7 -14.2 70 5 13 24.1 101.60 -16 Snow
05:00 -9.7 -14.0 71 4 13 24.1 101.57 -16 Cloudy
06:00 -9.7 -13.8 72 4 11 24.1 101.56 -15 Mostly Cloudy
07:00 -9.6 -13.4 74 4 13 24.1 101.56 -16 Mostly Cloudy
08:00 -8.2 -12.1 73 4 15 24.1 101.57 -15 Mostly Cloudy
09:00 -6.9 -11.5 70 5 22 24.1 101.57 -14 Mostly Cloudy
10:00 -6.1 -11.3 67 3 19 24.1 101.60 -13 Mostly Cloudy
11:00 -5.8 -11.0 67 4 24 24.1 101.62 -13 Mostly Cloudy
12:00 -4.3 -9.8 65 7 17 24.1 101.62 -10 Snow Showers
13:00 -4.6 -10.6 63 4 24 24.1 101.48 -12 Mostly Cloudy
14:00 -4.1 -10.1 63 4 20 24.1 101.46 -10 Mostly Cloudy
15:00 -3.8 -9.7 64 3 20 24.1 101.46 -10 Mostly Cloudy
16:00 -4.1 -9.9 64 4 20 24.1 101.48 -10 Mostly Cloudy
17:00 -4.8 -10.2 66 3 15 24.1 101.52 -10 Mostly Cloudy
18:00 -5.3 -10.1 69 4 11 24.1 101.53 -10 Mostly Cloudy
19:00 -6.9 -10.9 73 3 7 24.1 101.49 -10 Mostly Cloudy
20:00 -8.4 -11.6 78 2 6 24.1 101.50 -12 Mainly Clear
21:00 -7.4 -9.9 82 27 4 24.1 101.63 -9 Mostly Cloudy
22:00 -8.5 -11.4 80 1 6 24.1 101.55 -12 Mostly Cloudy
23:00 -9.5 -12.0 82 35 4 24.1 101.56 -12 Mostly Cloudy

Notes on Data Quality.

Legend
  • M = Missing
  • E = Estimated
  • NA = Not Available
  • ‡ = Partner data that is not subject to review by the National Climate Archives